ASA342 PAWG-PAPG

Flight info

Callsign ASA342
Flight time 0h 9m
Altitude 6000
Route KAJBU5 KAJBU
Aircraft B738/M-SDE2E3FGHIRWXY/LB1

Departure

Time 2026-05-03 20:15
Airport Wrangell Airport (PAWG)

Arrival

Time 2026-05-03 20:24
Airport Petersburg James A Johnson Airport (PAPG)
Time Latitude Longitude Altitude Speed Heading
2026-05-03 20:15 56.49496 -132.46021 3465 ft 173 kts 278°
2026-05-03 20:15 56.49612 -132.47925 4552 ft 168 kts 280°
2026-05-03 20:15 56.49750 -132.50307 4894 ft 203 kts 283°
2026-05-03 20:15 56.50050 -132.52657 5830 ft 197 kts 298°
2026-05-03 20:16 56.50640 -132.54858 6191 ft 221 kts 300°
2026-05-03 20:16 56.51359 -132.57448 6458 ft 238 kts 299°
2026-05-03 20:16 56.52094 -132.60185 6503 ft 247 kts 296°
2026-05-03 20:16 56.52784 -132.63060 6161 ft 247 kts 297°
2026-05-03 20:17 56.53641 -132.65710 5916 ft 244 kts 310°
2026-05-03 20:17 56.54828 -132.67656 6506 ft 212 kts 322°
2026-05-03 20:17 56.55946 -132.69568 6219 ft 227 kts 315°
2026-05-03 20:17 56.57031 -132.71596 6318 ft 232 kts 316°
2026-05-03 20:18 56.57975 -132.73749 7122 ft 203 kts 301°
2026-05-03 20:18 56.58640 -132.76108 6961 ft 225 kts 294°
2026-05-03 20:18 56.59158 -132.78860 6642 ft 240 kts 289°
2026-05-03 20:18 56.59500 -132.81845 6271 ft 246 kts 288°
2026-05-03 20:19 56.60267 -132.84474 5908 ft 223 kts 312°
2026-05-03 20:19 56.61351 -132.86107 5991 ft 183 kts 323°
2026-05-03 20:19 56.62236 -132.87488 5383 ft 197 kts 323°
2026-05-03 20:19 56.63193 -132.89609 2410 ft 271 kts 305°
2026-05-03 20:20 56.64375 -132.91557 2874 ft 204 kts 332°
2026-05-03 20:20 56.65611 -132.92549 2710 ft 188 kts 335°
2026-05-03 20:20 56.66727 -132.93652 2451 ft 176 kts 333°
2026-05-03 20:20 56.67839 -132.94421 2546 ft 185 kts 347°
2026-05-03 20:21 56.69108 -132.94742 2460 ft 175 kts 353°
2026-05-03 20:21 56.70331 -132.94821 2913 ft 185 kts 357°
2026-05-03 20:21 56.71653 -132.94634 2402 ft 190 kts 11°
2026-05-03 20:21 56.72958 -132.94453 1871 ft 199 kts 350°
2026-05-03 20:22 56.74064 -132.95609 1820 ft 185 kts 313°
2026-05-03 20:22 56.74841 -132.97559 1527 ft 194 kts 303°
2026-05-03 20:22 56.75491 -132.99487 1429 ft 163 kts 306°
2026-05-03 20:22 56.76289 -133.00861 1495 ft 163 kts 332°
2026-05-03 20:23 56.77364 -133.01260 1219 ft 150 kts 358°
2026-05-03 20:23 56.78380 -133.01085 946 ft 144 kts 26°
2026-05-03 20:23 56.79113 -132.99988 713 ft 133 kts 63°
2026-05-03 20:23 56.79425 -132.98467 518 ft 127 kts 71°
2026-05-03 20:24 56.79712 -132.96945 275 ft 127 kts 70°
2026-05-03 20:24 56.79994 -132.95458 88 ft 118 kts 71°
2026-05-03 20:24 56.80164 -132.94537 74 ft 32 kts 71°
2026-05-03 20:24 56.80271 -132.93991 75 ft 51 kts 69°
2026-05-03 20:25 56.80375 -132.93433 82 ft 35 kts 70°
2026-05-03 20:25 56.80500 -132.93416 80 ft 16 kts 336°
2026-05-03 20:25 56.80544 -132.93565 78 ft 12 kts 252°
2026-05-03 20:25 56.80542 -132.93576 78 ft 0 kts 249°